Location: Champignolles
(47.0543°N, 4.5663°E)
Time: 14:04:47
(UTC+00:00)

Cosmos 1356 - Pass Details

Date: 30 November 2020
Orbit: 440 x 444 km, 81.1° (Epoch: 26 January)

Event Time Altitude Azimuth Distance (km) Brightness Sun altitude
Rises 16:29:14 0° 351° (N) 2,454 7.0 -6.0°
Reaches altitude 10° 16:31:19 10° 354° (N) 1,578 6.0 -6.3°
Maximum altitude 16:34:44 65° 77° (ENE) 498 3.4 -6.8°
Drops below altitude 10° 16:38:09 10° 160° (SSE) 1,567 6.2 -7.4°
Sets 16:40:12 0° 164° (SSE) 2,434 7.2 -7.7°
